TimeCDT,TemperatureF,Dew PointF,Humidity,Sea Level PressureIn,VisibilityMPH,Wind Direction,Wind SpeedMPH,Gust SpeedMPH,PrecipitationIn,Events,Conditions,WindDirDegrees,DateUTC
12:15 AM,44.6,32.0,61,29.77,10.0,SE,20.7,29.9,N/A,,Clear,140,2013-04-06 05:15:00
12:35 AM,44.6,32.0,61,29.77,10.0,SE,18.4,26.5,N/A,,Clear,140,2013-04-06 05:35:00
12:55 AM,44.6,32.0,61,29.76,10.0,SE,19.6,29.9,N/A,,Clear,140,2013-04-06 05:55:00
1:15 AM,44.6,33.8,66,29.75,10.0,SE,19.6,-,N/A,,Partly Cloudy,130,2013-04-06 06:15:00
1:35 AM,44.6,33.8,66,29.74,10.0,SE,18.4,25.3,N/A,,Partly Cloudy,140,2013-04-06 06:35:00
1:55 AM,44.6,33.8,66,29.74,10.0,SE,19.6,-,N/A,,Clear,130,2013-04-06 06:55:00
2:15 AM,44.6,33.8,66,29.72,10.0,SE,20.7,-,N/A,,Clear,140,2013-04-06 07:15:00
2:35 AM,44.6,35.6,71,29.71,10.0,SE,19.6,27.6,N/A,,Partly Cloudy,140,2013-04-06 07:35:00
2:55 AM,44.6,35.6,71,29.70,10.0,SE,16.1,24.2,N/A,,Scattered Clouds,140,2013-04-06 07:55:00
3:15 AM,44.6,35.6,71,29.69,10.0,SE,18.4,-,N/A,,Clear,140,2013-04-06 08:15:00
3:35 AM,44.6,35.6,71,29.68,10.0,SE,19.6,-,N/A,,Clear,140,2013-04-06 08:35:00
3:55 AM,44.6,35.6,71,29.68,10.0,SE,19.6,26.5,N/A,,Clear,140,2013-04-06 08:55:00
4:15 AM,44.6,35.6,71,29.67,10.0,SE,18.4,25.3,N/A,,Scattered Clouds,140,2013-04-06 09:15:00
4:35 AM,44.6,35.6,71,29.66,10.0,SE,18.4,24.2,N/A,,Overcast,140,2013-04-06 09:35:00
4:55 AM,46.4,37.4,71,29.65,10.0,SSE,20.7,28.8,N/A,,Overcast,150,2013-04-06 09:55:00
5:15 AM,46.4,37.4,71,29.64,10.0,SSE,19.6,28.8,N/A,,Overcast,150,2013-04-06 10:15:00
5:35 AM,46.4,37.4,71,29.62,10.0,SSE,21.9,-,N/A,,Overcast,150,2013-04-06 10:35:00
5:55 AM,46.4,37.4,71,29.63,10.0,SE,17.3,-,N/A,,Overcast,140,2013-04-06 10:55:00
6:15 AM,46.4,37.4,71,29.63,10.0,SE,10.4,19.6,N/A,,Overcast,130,2013-04-06 11:15:00
6:35 AM,46.4,39.2,76,29.63,10.0,SE,11.5,17.3,N/A,,Overcast,140,2013-04-06 11:35:00
6:55 AM,46.4,39.2,76,29.62,10.0,SSE,13.8,-,N/A,,Mostly Cloudy,150,2013-04-06 11:55:00
7:15 AM,46.4,39.2,76,29.59,10.0,SE,18.4,-,N/A,,Partly Cloudy,140,2013-04-06 12:15:00
7:35 AM,46.4,39.2,76,29.60,10.0,SSE,17.3,-,N/A,,Clear,150,2013-04-06 12:35:00
7:55 AM,46.4,41.0,81,29.59,10.0,SSE,16.1,-,N/A,,Clear,150,2013-04-06 12:55:00
8:15 AM,48.2,41.0,76,29.58,10.0,SSE,16.1,-,N/A,,Clear,150,2013-04-06 13:15:00
8:35 AM,50.0,41.0,71,29.57,10.0,SSE,17.3,23.0,N/A,,Clear,160,2013-04-06 13:35:00
8:55 AM,51.8,42.8,71,29.56,10.0,SSE,16.1,23.0,N/A,,Clear,160,2013-04-06 13:55:00
9:15 AM,53.6,42.8,67,29.55,10.0,South,19.6,27.6,N/A,,Clear,170,2013-04-06 14:15:00
9:35 AM,55.4,44.6,67,29.54,10.0,South,23.0,-,N/A,,Clear,180,2013-04-06 14:35:00
9:55 AM,55.4,44.6,67,29.53,10.0,South,24.2,32.2,N/A,,Clear,190,2013-04-06 14:55:00
10:15 AM,57.2,44.6,63,29.53,10.0,SSW,21.9,31.1,N/A,,Clear,200,2013-04-06 15:15:00
10:35 AM,59.0,46.4,63,29.52,10.0,SSW,25.3,-,N/A,,Clear,200,2013-04-06 15:35:00
10:55 AM,59.0,46.4,63,29.52,10.0,SSW,24.2,29.9,N/A,,Clear,210,2013-04-06 15:55:00
11:15 AM,59.0,46.4,63,29.53,10.0,SW,24.2,32.2,N/A,,Scattered Clouds,220,2013-04-06 16:15:00
11:35 AM,59.0,46.4,63,29.53,10.0,SW,23.0,33.4,N/A,,Overcast,230,2013-04-06 16:35:00
11:55 AM,57.2,46.4,67,29.53,10.0,SW,23.0,28.8,N/A,,Overcast,230,2013-04-06 16:55:00
12:15 PM,57.2,46.4,67,29.54,10.0,WSW,23.0,-,N/A,,Overcast,240,2013-04-06 17:15:00
12:35 PM,57.2,46.4,67,29.54,10.0,WSW,20.7,26.5,N/A,,Scattered Clouds,250,2013-04-06 17:35:00
12:55 PM,53.6,44.6,72,29.54,10.0,West,21.9,-,N/A,,Light Drizzle,270,2013-04-06 17:55:00
1:15 PM,51.8,41.0,67,29.55,10.0,West,16.1,25.3,N/A,,Mostly Cloudy,270,2013-04-06 18:15:00
1:35 PM,50.0,41.0,71,29.55,9.0,WNW,13.8,-,N/A,,Light Drizzle,290,2013-04-06 18:35:00
1:55 PM,50.0,42.8,76,29.57,9.0,West,10.4,-,N/A,,Light Drizzle,260,2013-04-06 18:55:00
2:15 PM,48.2,44.6,87,29.55,2.0,SSW,4.6,12.7,N/A,Rain,Light Rain,210,2013-04-06 19:15:00
2:35 PM,48.2,44.6,87,29.54,4.0,Calm,Calm,-,N/A,Rain,Light Rain,0,2013-04-06 19:35:00
2:55 PM,48.2,46.4,93,29.57,5.0,West,15.0,-,0.05,Rain,Light Rain,260,2013-04-06 19:55:00
3:15 PM,48.2,46.4,93,29.57,7.0,WSW,15.0,20.7,N/A,,Overcast,250,2013-04-06 20:15:00
3:35 PM,48.2,46.4,93,29.57,7.0,WSW,15.0,20.7,N/A,,Overcast,240,2013-04-06 20:35:00
3:55 PM,46.4,44.6,93,29.58,6.0,WSW,15.0,21.9,N/A,,Overcast,250,2013-04-06 20:55:00
4:15 PM,46.4,46.4,100,29.59,5.0,WSW,13.8,20.7,N/A,,Overcast,250,2013-04-06 21:15:00
4:35 PM,48.2,48.2,100,29.60,6.0,West,16.1,-,N/A,,Overcast,280,2013-04-06 21:35:00
4:55 PM,50.0,46.4,87,29.60,8.0,WNW,13.8,19.6,N/A,,Overcast,300,2013-04-06 21:55:00
5:15 PM,50.0,44.6,82,29.62,8.0,NW,17.3,-,N/A,,Overcast,310,2013-04-06 22:15:00
5:35 PM,50.0,44.6,82,29.63,7.0,NW,17.3,-,N/A,,Overcast,310,2013-04-06 22:35:00
5:55 PM,50.0,44.6,82,29.64,9.0,NW,15.0,23.0,N/A,,Mostly Cloudy,320,2013-04-06 22:55:00
6:15 PM,50.0,42.8,76,29.65,9.0,NW,13.8,20.7,N/A,,Scattered Clouds,320,2013-04-06 23:15:00
6:35 PM,50.0,42.8,76,29.66,9.0,NNW,12.7,-,N/A,,Partly Cloudy,330,2013-04-06 23:35:00
6:55 PM,50.0,42.8,76,29.67,8.0,NNW,12.7,-,N/A,,Clear,330,2013-04-06 23:55:00
7:15 PM,48.2,42.8,82,29.67,9.0,NNW,13.8,20.7,N/A,,Clear,330,2013-04-07 00:15:00
7:35 PM,48.2,42.8,82,29.68,9.0,NNW,13.8,-,N/A,,Clear,340,2013-04-07 00:35:00
7:55 PM,46.4,41.0,81,29.68,9.0,NNW,12.7,-,N/A,,Clear,340,2013-04-07 00:55:00
8:15 PM,44.6,41.0,87,29.70,9.0,NNW,9.2,-,N/A,,Clear,330,2013-04-07 01:15:00
8:35 PM,44.6,41.0,87,29.72,10.0,NNW,9.2,-,N/A,,Clear,330,2013-04-07 01:35:00
8:55 PM,42.8,41.0,93,29.73,10.0,NW,8.1,-,N/A,,Clear,320,2013-04-07 01:55:00
9:15 PM,42.8,39.2,87,29.74,9.0,NNW,9.2,-,N/A,,Clear,340,2013-04-07 02:15:00
9:35 PM,41.0,39.2,93,29.74,9.0,NNW,11.5,-,N/A,,Clear,340,2013-04-07 02:35:00
9:55 PM,41.0,39.2,93,29.75,8.0,NNW,10.4,-,N/A,,Clear,340,2013-04-07 02:55:00
10:15 PM,39.2,37.4,93,29.76,8.0,North,8.1,-,N/A,,Clear,350,2013-04-07 03:15:00
10:35 PM,39.2,37.4,93,29.76,8.0,NNW,8.1,-,N/A,,Clear,340,2013-04-07 03:35:00
10:55 PM,37.4,35.6,93,29.77,7.0,North,8.1,-,N/A,,Clear,350,2013-04-07 03:55:00
11:15 PM,37.4,35.6,93,29.78,6.0,NNW,6.9,-,N/A,,Clear,330,2013-04-07 04:15:00
11:35 PM,35.6,35.6,100,29.78,6.0,NNW,5.8,-,N/A,,Clear,330,2013-04-07 04:35:00
11:55 PM,35.6,35.6,100,29.78,5.0,NNW,10.4,-,N/A,,Clear,340,2013-04-07 04:55:00